Time,TemperatureF,DewpointF,PressureIn,WindDirection,WindDirectionDegrees,WindSpeedMPH,WindSpeedGustMPH,Humidity,HourlyPrecipIn,Conditions,Clouds,dailyrainin,SoftwareType,DateUTC
2013-05-06 00:03:00,60.6,55.0,29.91,SE,143,1.0,6.0,83,0.00,,,0.00,weatherlink.com 1.10,2013-05-06 07:03:00,
2013-05-06 00:18:00,60.1,56.0,29.92,SE,132,2.0,8.0,85,0.02,,,0.02,weatherlink.com 1.10,2013-05-06 07:18:00,
2013-05-06 00:33:00,59.0,55.0,29.92,ESE,113,2.0,9.0,87,0.09,,,0.09,weatherlink.com 1.10,2013-05-06 07:33:00,
2013-05-06 00:48:00,58.8,55.0,29.91,SE,128,3.0,3.0,88,0.10,,,0.10,weatherlink.com 1.10,2013-05-06 07:48:00,
2013-05-06 01:03:00,58.9,55.0,29.90,ENE,75,2.0,5.0,88,0.10,,,0.10,weatherlink.com 1.10,2013-05-06 08:03:00,
2013-05-06 01:18:00,59.3,56.0,29.90,SE,142,0.0,4.0,89,0.08,,,0.11,weatherlink.com 1.10,2013-05-06 08:18:00,
2013-05-06 01:33:00,59.3,56.0,29.90,NE,42,3.0,5.0,89,0.02,,,0.11,weatherlink.com 1.10,2013-05-06 08:33:00,
2013-05-06 01:48:00,59.4,56.0,29.90,ESE,121,1.0,4.0,89,0.06,,,0.16,weatherlink.com 1.10,2013-05-06 08:48:00,
2013-05-06 02:03:00,59.4,56.0,29.89,SW,236,0.0,2.0,89,0.09,,,0.19,weatherlink.com 1.10,2013-05-06 09:03:00,
2013-05-06 02:18:00,59.6,57.0,29.89,SSE,159,2.0,2.0,90,0.08,,,0.19,weatherlink.com 1.10,2013-05-06 09:18:00,
2013-05-06 02:33:00,59.9,57.0,29.89,SSW,210,0.0,3.0,90,0.08,,,0.19,weatherlink.com 1.10,2013-05-06 09:33:00,
2013-05-06 02:48:00,59.9,57.0,29.88,ESE,115,2.0,4.0,90,0.03,,,0.19,weatherlink.com 1.10,2013-05-06 09:48:00,
2013-05-06 03:03:00,60.1,57.0,29.88,ESE,113,1.0,4.0,90,0.01,,,0.20,weatherlink.com 1.10,2013-05-06 10:03:00,
2013-05-06 03:19:00,60.3,57.0,29.88,SW,236,0.0,3.0,90,0.02,,,0.21,weatherlink.com 1.10,2013-05-06 10:19:00,
2013-05-06 03:33:00,60.3,57.0,29.88,SSE,148,2.0,5.0,90,0.03,,,0.22,weatherlink.com 1.10,2013-05-06 10:33:00,
2013-05-06 03:48:00,60.4,58.0,29.88,SSE,158,3.0,6.0,90,0.03,,,0.22,weatherlink.com 1.10,2013-05-06 10:48:00,
2013-05-06 04:03:00,60.2,57.0,29.88,SE,141,0.0,6.0,90,0.04,,,0.24,weatherlink.com 1.10,2013-05-06 11:03:00,
2013-05-06 04:18:00,60.1,57.0,29.88,East,80,3.0,7.0,90,0.09,,,0.30,weatherlink.com 1.10,2013-05-06 11:18:00,
2013-05-06 04:33:00,59.7,57.0,29.87,SSE,148,3.0,5.0,90,0.12,,,0.34,weatherlink.com 1.10,2013-05-06 11:33:00,
2013-05-06 04:48:00,59.7,57.0,29.87,SSE,153,1.0,4.0,90,0.20,,,0.42,weatherlink.com 1.10,2013-05-06 11:48:00,
2013-05-06 05:03:00,59.7,57.0,29.87,SSE,153,1.0,2.0,91,0.24,,,0.48,weatherlink.com 1.10,2013-05-06 12:03:00,
2013-05-06 05:18:00,60.0,57.0,29.87,SW,228,1.0,3.0,91,0.20,,,0.50,weatherlink.com 1.10,2013-05-06 12:18:00,
2013-05-06 05:33:00,60.1,58.0,29.87,SW,227,1.0,4.0,91,0.17,,,0.51,weatherlink.com 1.10,2013-05-06 12:33:00,
2013-05-06 05:48:00,60.2,58.0,29.88,SW,229,1.0,3.0,91,0.09,,,0.51,weatherlink.com 1.10,2013-05-06 12:48:00,
2013-05-06 06:03:00,60.4,58.0,29.88,WSW,238,0.0,3.0,91,0.03,,,0.51,weatherlink.com 1.10,2013-05-06 13:03:00,
2013-05-06 06:18:00,60.3,58.0,29.88,SW,228,1.0,1.0,91,0.02,,,0.52,weatherlink.com 1.10,2013-05-06 13:18:00,
2013-05-06 06:33:00,60.5,58.0,29.89,South,171,1.0,3.0,91,0.01,,,0.52,weatherlink.com 1.10,2013-05-06 13:33:00,
2013-05-06 06:48:00,60.6,58.0,29.89,SSW,203,0.0,1.0,91,0.01,,,0.52,weatherlink.com 1.10,2013-05-06 13:48:00,
2013-05-06 07:03:00,60.8,58.0,29.91,SW,235,0.0,2.0,91,0.01,,,0.52,weatherlink.com 1.10,2013-05-06 14:03:00,
2013-05-06 07:18:00,61.1,59.0,29.91,SSW,210,0.0,4.0,91,0.00,,,0.52,weatherlink.com 1.10,2013-05-06 14:18:00,
2013-05-06 07:33:00,61.5,59.0,29.92,SW,231,3.0,6.0,91,0.00,,,0.52,weatherlink.com 1.10,2013-05-06 14:33:00,
2013-05-06 07:48:00,61.9,59.0,29.92,South,186,2.0,6.0,90,0.00,,,0.52,weatherlink.com 1.10,2013-05-06 14:48:00,
2013-05-06 08:03:00,62.3,59.0,29.92,SSE,162,2.0,5.0,90,0.00,,,0.52,weatherlink.com 1.10,2013-05-06 15:03:00,
2013-05-06 08:18:00,62.3,59.0,29.92,ESE,123,1.0,7.0,88,0.00,,,0.52,weatherlink.com 1.10,2013-05-06 15:18:00,
2013-05-06 08:33:00,62.9,59.0,29.92,SE,127,2.0,4.0,88,0.00,,,0.52,weatherlink.com 1.10,2013-05-06 15:33:00,
2013-05-06 08:49:00,62.7,59.0,29.93,SE,139,3.0,6.0,87,0.00,,,0.52,weatherlink.com 1.10,2013-05-06 15:49:00,
2013-05-06 09:04:00,61.2,57.0,29.93,SE,143,4.0,7.0,86,0.01,,,0.53,weatherlink.com 1.10,2013-05-06 16:04:00,
2013-05-06 09:19:00,60.9,57.0,29.93,SE,139,1.0,5.0,87,0.01,,,0.53,weatherlink.com 1.10,2013-05-06 16:19:00,
2013-05-06 09:34:00,62.6,59.0,29.94,SW,236,0.0,5.0,89,0.01,,,0.53,weatherlink.com 1.10,2013-05-06 16:34:00,
2013-05-06 09:49:00,63.9,60.0,29.93,South,173,5.0,5.0,86,0.01,,,0.53,weatherlink.com 1.10,2013-05-06 16:49:00,
2013-05-06 10:04:00,65.8,60.0,29.93,SW,224,3.0,7.0,81,0.00,,,0.53,weatherlink.com 1.10,2013-05-06 17:04:00,
2013-05-06 10:19:00,67.2,58.0,29.94,ESE,122,2.0,10.0,73,0.00,,,0.53,weatherlink.com 1.10,2013-05-06 17:19:00,
2013-05-06 10:34:00,67.3,57.0,29.95,SSW,192,3.0,7.0,69,0.00,,,0.53,weatherlink.com 1.10,2013-05-06 17:34:00,
2013-05-06 11:04:00,67.7,57.0,29.95,SSW,207,4.0,6.0,69,0.00,,,0.53,weatherlink.com 1.10,2013-05-06 18:04:00,
2013-05-06 11:19:00,66.9,58.0,29.95,SSE,160,3.0,7.0,73,0.00,,,0.53,weatherlink.com 1.10,2013-05-06 18:19:00,
2013-05-06 11:34:00,66.1,58.0,29.96,SSW,196,4.0,11.0,75,0.00,,,0.53,weatherlink.com 1.10,2013-05-06 18:34:00,
2013-05-06 11:49:00,66.7,58.0,29.95,WSW,237,7.0,11.0,74,0.00,,,0.53,weatherlink.com 1.10,2013-05-06 18:49:00,
2013-05-06 12:04:00,67.4,58.0,29.95,SSW,208,7.0,8.0,72,0.00,,,0.53,weatherlink.com 1.10,2013-05-06 19:04:00,
2013-05-06 12:19:00,67.5,57.0,29.95,SW,227,5.0,11.0,69,0.00,,,0.53,weatherlink.com 1.10,2013-05-06 19:19:00,
2013-05-06 12:34:00,67.9,56.0,29.95,SW,234,7.0,9.0,66,0.00,,,0.53,weatherlink.com 1.10,2013-05-06 19:34:00,
2013-05-06 12:49:00,68.2,58.0,29.95,SSE,148,2.0,10.0,69,0.00,,,0.53,weatherlink.com 1.10,2013-05-06 19:49:00,
2013-05-06 13:04:00,69.1,57.0,29.95,SE,134,3.0,11.0,65,0.00,,,0.53,weatherlink.com 1.10,2013-05-06 20:04:00,
2013-05-06 13:19:00,69.8,56.0,29.95,SE,131,5.0,12.0,61,0.00,,,0.53,weatherlink.com 1.10,2013-05-06 20:19:00,
2013-05-06 13:34:00,70.4,55.0,29.95,SSW,212,3.0,10.0,58,0.00,,,0.53,weatherlink.com 1.10,2013-05-06 20:34:00,
2013-05-06 13:49:00,70.9,55.0,29.95,SSW,212,2.0,10.0,57,0.00,,,0.53,weatherlink.com 1.10,2013-05-06 20:49:00,
2013-05-06 14:04:00,70.6,54.0,29.95,SW,220,3.0,10.0,56,0.00,,,0.53,weatherlink.com 1.10,2013-05-06 21:04:00,
2013-05-06 14:19:00,70.4,54.0,29.94,SW,226,4.0,10.0,56,0.00,,,0.53,weatherlink.com 1.10,2013-05-06 21:19:00,
2013-05-06 14:34:00,70.4,55.0,29.94,SSW,207,2.0,11.0,59,0.00,,,0.53,weatherlink.com 1.10,2013-05-06 21:34:00,
2013-05-06 14:49:00,70.3,53.0,29.94,WSW,251,7.0,9.0,55,0.00,,,0.53,weatherlink.com 1.10,2013-05-06 21:49:00,
2013-05-06 15:04:00,69.3,53.0,29.94,SW,233,11.0,13.0,57,0.00,,,0.53,weatherlink.com 1.10,2013-05-06 22:04:00,
2013-05-06 15:19:00,68.9,57.0,29.94,SSW,200,5.0,10.0,65,0.00,,,0.53,weatherlink.com 1.10,2013-05-06 22:19:00,
2013-05-06 15:34:00,67.7,56.0,29.94,South,188,1.0,9.0,66,0.00,,,0.53,weatherlink.com 1.10,2013-05-06 22:34:00,
2013-05-06 15:49:00,68.1,56.0,29.93,SW,222,6.0,10.0,66,0.00,,,0.53,weatherlink.com 1.10,2013-05-06 22:49:00,
2013-05-06 16:04:00,68.0,57.0,29.93,SW,220,7.0,14.0,69,0.00,,,0.53,weatherlink.com 1.10,2013-05-06 23:04:00,
2013-05-06 16:19:00,65.4,56.0,29.93,SSE,156,5.0,11.0,72,0.00,,,0.53,weatherlink.com 1.10,2013-05-06 23:19:00,
2013-05-06 16:34:00,65.6,54.0,29.93,ESE,112,1.0,10.0,67,0.00,,,0.53,weatherlink.com 1.10,2013-05-06 23:34:00,
2013-05-06 16:49:00,66.5,54.0,29.93,West,266,2.0,10.0,64,0.00,,,0.53,weatherlink.com 1.10,2013-05-06 23:49:00,
2013-05-06 17:04:00,66.1,54.0,29.93,SW,219,6.0,10.0,66,0.00,,,0.53,weatherlink.com 1.10,2013-05-07 00:04:00,
2013-05-06 17:19:00,65.4,55.0,29.93,ESE,122,3.0,11.0,69,0.00,,,0.53,weatherlink.com 1.10,2013-05-07 00:19:00,
2013-05-06 17:34:00,65.6,55.0,29.93,SE,141,4.0,9.0,69,0.00,,,0.53,weatherlink.com 1.10,2013-05-07 00:34:00,
2013-05-06 17:49:00,65.8,54.0,29.93,SSW,194,8.0,8.0,67,0.00,,,0.53,weatherlink.com 1.10,2013-05-07 00:49:00,
2013-05-06 18:04:00,66.6,56.0,29.93,South,176,6.0,11.0,69,0.00,,,0.53,weatherlink.com 1.10,2013-05-07 01:04:00,
2013-05-06 18:19:00,66.3,56.0,29.93,SW,234,1.0,8.0,70,0.00,,,0.53,weatherlink.com 1.10,2013-05-07 01:19:00,
2013-05-06 18:34:00,65.6,56.0,29.93,SE,131,4.0,7.0,71,0.00,,,0.53,weatherlink.com 1.10,2013-05-07 01:34:00,
2013-05-06 18:49:00,65.2,56.0,29.93,SW,228,1.0,7.0,71,0.00,,,0.53,weatherlink.com 1.10,2013-05-07 01:49:00,
2013-05-06 19:04:00,65.3,56.0,29.94,South,178,3.0,6.0,72,0.00,,,0.53,weatherlink.com 1.10,2013-05-07 02:04:00,
2013-05-06 19:19:00,64.9,56.0,29.94,SW,229,2.0,6.0,72,0.00,,,0.53,weatherlink.com 1.10,2013-05-07 02:19:00,
2013-05-06 19:34:00,64.7,55.0,29.94,SW,231,2.0,8.0,72,0.00,,,0.53,weatherlink.com 1.10,2013-05-07 02:34:00,
2013-05-06 19:49:00,64.3,56.0,29.95,SSW,204,4.0,7.0,74,0.00,,,0.53,weatherlink.com 1.10,2013-05-07 02:49:00,
2013-05-06 20:04:00,64.1,56.0,29.95,SSE,153,4.0,8.0,76,0.00,,,0.53,weatherlink.com 1.10,2013-05-07 03:04:00,
2013-05-06 20:19:00,63.7,57.0,29.95,SW,217,3.0,7.0,78,0.00,,,0.53,weatherlink.com 1.10,2013-05-07 03:19:00,
2013-05-06 20:34:00,63.4,57.0,29.95,SW,216,0.0,6.0,80,0.00,,,0.53,weatherlink.com 1.10,2013-05-07 03:34:00,
2013-05-06 20:49:00,63.2,57.0,29.96,SE,143,2.0,5.0,79,0.00,,,0.53,weatherlink.com 1.10,2013-05-07 03:49:00,
2013-05-06 21:04:00,63.3,57.0,29.96,SSE,155,1.0,8.0,80,0.00,,,0.53,weatherlink.com 1.10,2013-05-07 04:04:00,
2013-05-06 21:19:00,63.0,57.0,29.96,SE,125,1.0,6.0,80,0.00,,,0.53,weatherlink.com 1.10,2013-05-07 04:19:00,
2013-05-06 21:34:00,62.8,57.0,29.97,SW,224,3.0,5.0,81,0.00,,,0.53,weatherlink.com 1.10,2013-05-07 04:34:00,
2013-05-06 21:49:00,62.6,57.0,29.98,SSE,150,2.0,4.0,81,0.00,,,0.53,weatherlink.com 1.10,2013-05-07 04:49:00,
2013-05-06 22:05:00,62.5,57.0,29.98,SE,146,0.0,6.0,81,0.00,,,0.53,weatherlink.com 1.10,2013-05-07 05:05:00,
2013-05-06 22:20:00,62.6,56.0,29.98,SE,136,0.0,6.0,80,0.00,,,0.53,weatherlink.com 1.10,2013-05-07 05:20:00,
2013-05-06 22:35:00,62.7,56.0,29.98,SE,128,4.0,5.0,80,0.00,,,0.53,weatherlink.com 1.10,2013-05-07 05:35:00,
2013-05-06 22:50:00,62.7,56.0,29.98,South,188,2.0,5.0,80,0.00,,,0.53,weatherlink.com 1.10,2013-05-07 05:50:00,
2013-05-06 23:05:00,62.9,57.0,29.98,WSW,239,0.0,6.0,82,0.01,,,0.54,weatherlink.com 1.10,2013-05-07 06:05:00,
2013-05-06 23:20:00,62.6,57.0,29.97,SW,231,1.0,7.0,83,0.01,,,0.54,weatherlink.com 1.10,2013-05-07 06:20:00,
2013-05-06 23:35:00,62.2,57.0,29.98,WSW,238,0.0,5.0,83,0.01,,,0.54,weatherlink.com 1.10,2013-05-07 06:35:00,
2013-05-06 23:50:00,61.8,57.0,29.98,SW,229,0.0,2.0,84,0.01,,,0.54,weatherlink.com 1.10,2013-05-07 06:50:00,